Satellite: PO-28
Catalog number: 22829
Epoch time:      08037.50429016
Element set:    0868
Inclination:      098.3480 deg
RA of node:       004.6841 deg
Eccentricity:    0.0008855
Arg of perigee:   258.6838 deg
Mean anomaly:     101.3359 deg
Mean motion:   14.30179746 rev/day
Decay rate:        3.7e-07 rev/day^2
Epoch rev:           74930
Checksum:              329

Satellite: GO-32
Catalog number: 25397
Epoch time:      08037.63607748
Element set:    0522
Inclination:      098.3826 deg
RA of node:       079.1841 deg
Eccentricity:    0.0000368
Arg of perigee:   254.3504 deg
Mean anomaly:     105.7632 deg
Mean motion:   14.23138680 rev/day
Decay rate:       1.20e-06 rev/day^2
Epoch rev:           49750
Checksum:              303

Satellite: MO-46
Catalog number: 26548
Epoch time:      08037.82669751
Element set:    0018
Inclination:      064.5550 deg
RA of node:       176.7293 deg
Eccentricity:    0.0014456
Arg of perigee:   342.2690 deg
Mean anomaly:     017.7871 deg
Mean motion:   14.83224664 rev/day
Decay rate:        2.1e-07 rev/day^2
Epoch rev:           39833
Checksum:              323

Satellite: NO-44
Catalog number: 26931
Epoch time:      08037.89240687
Element set:    0802
Inclination:      067.0528 deg
RA of node:       262.8874 deg
Eccentricity:    0.0004688
Arg of perigee:   267.4063 deg
Mean anomaly:     092.6469 deg
Mean motion:   14.29511536 rev/day
Decay rate:        1.6e-07 rev/day^2
Epoch rev:           33164
Checksum:              328

Satellite: SO-50
Catalog number: 27607
Epoch time:      08038.64259390
Element set:     523
Inclination:      064.5590 deg
RA of node:       090.0898 deg
Eccentricity:    0.0079561
Arg of perigee:   305.3766 deg
Mean anomaly:     053.9936 deg
Mean motion:   14.71324664 rev/day
Decay rate:        4.0e-07 rev/day^2
Epoch rev:           27576
Checksum:              330

Satellite: CO-55
Catalog number: 27844
Epoch time:      08037.58452128
Element set:    0231
Inclination:      098.7183 deg
RA of node:       047.6650 deg
Eccentricity:    0.0010300
Arg of perigee:   132.4404 deg
Mean anomaly:     227.7639 deg
Mean motion:   14.20558688 rev/day
Decay rate:        4.4e-07 rev/day^2
Epoch rev:           23875
Checksum:              307

Satellite: CO-57
Catalog number: 27848
Epoch time:      08037.91726272
Element set:    0185
Inclination:      098.7179 deg
RA of node:       047.1171 deg
Eccentricity:    0.0010195
Arg of perigee:   135.3852 deg
Mean anomaly:     224.8153 deg
Mean motion:   14.20370912 rev/day
Decay rate:        1.6e-07 rev/day^2
Epoch rev:           23877
Checksum:              313

Satellite: AO-51
Catalog number: 28375
Epoch time:      08036.52667764
Element set:    0024
Inclination:      098.0857 deg
RA of node:       068.4666 deg
Eccentricity:    0.0083222
Arg of perigee:   194.8409 deg
Mean anomaly:     165.0338 deg
Mean motion:   14.40595643 rev/day
Decay rate:       -1.0e-08 rev/day^2
Epoch rev:           18930
Checksum:              324

Satellite: CO-56
Catalog number: 28941
Epoch time:      08038.70249526
Element set:     827
Inclination:      098.1037 deg
RA of node:       132.3839 deg
Eccentricity:    0.0190954
Arg of perigee:   152.9437 deg
Mean anomaly:     208.1991 deg
Mean motion:   15.49827310 rev/day
Decay rate:     3.3270e-04 rev/day^2
Epoch rev:           10978
Checksum:              340

Satellite: NO-61
Catalog number: 29664
Epoch time:      07359.16654419
Element set:     738
Inclination:      051.6179 deg
RA of node:       150.0690 deg
Eccentricity:    0.0003189
Arg of perigee:   248.8461 deg
Mean anomaly:     111.8136 deg
Mean motion:   16.51627846 rev/day
Decay rate:  1.4620719e-01 rev/day^2
Epoch rev:            5877
Checksum:              345

Satellite: CP4
Catalog number: 31122
Epoch time:      08037.75382598
Element set:    0256
Inclination:      098.0572 deg
RA of node:       108.1355 deg
Eccentricity:    0.0085950
Arg of perigee:   017.8975 deg
Mean anomaly:     342.5167 deg
Mean motion:   14.55084772 rev/day
Decay rate:       5.50e-06 rev/day^2
Epoch rev:           04296
Checksum:              320

Satellite: CP3
Catalog number: 31128
Epoch time:      08037.70867871
Element set:    0251
Inclination:      098.0550 deg
RA of node:       106.6129 deg
Eccentricity:    0.0103495
Arg of perigee:   021.8466 deg
Mean anomaly:     338.7079 deg
Mean motion:   14.51910717 rev/day
Decay rate:       -4.7e-07 rev/day^2
Epoch rev:           04285
Checksum:              303

Satellite: LIBERT
Catalog number: 31129
Epoch time:      08038.72443457
Element set:     734
Inclination:      098.0567 deg
RA of node:       107.6171 deg
Eccentricity:    0.0102590
Arg of perigee:   018.8114 deg
Mean anomaly:     341.6788 deg
Mean motion:   14.52001804 rev/day
Decay rate:       3.38e-06 rev/day^2
Epoch rev:            4298
Checksum:              291

/EX
SB KEPS @ AMSAT  $ORB08038.W
Orbital Elements  08038.WEATHER

HR AMSAT ORBITAL ELEMENTS FOR WEATHER SATELLITES
FROM WA5QGD FORT WORTH,TX February 7, 2008
Send Subscribe/unsubscribe to KEPS at 
http://www.amsat.org/mailman/listinfo/keps
BID: ORB08038.W
TO ALL RADIO AMATEURS BT

